Hourly Data Report for April 01, 2020

TORONTO CITY
ONTARIO
Current Station Operator: ECCC - MSC

43°40'00.000" N
79°24'00.000" W
112.50 m
6158355
71508
XTO

Download Data

Hourly Data (April 2020)
Hourly Data Report for April 1, 2020
TIME
LST
Temp Definition
°C
Dew Point Definition
°C
Rel Hum Definition
%
Precip. Amount Definition
mm

Wind Dir Definition
10's deg

Wind Spd Definition
km/h
Visibility Definition
km
Stn Press Definition
kPa
Hmdx Definition


Wind Chill Definition


Weather Definition


00:00 6.0 -3.8 49 0.0       100.13     LegendNANA
01:00 5.8 -5.7 43 0.0       100.12     LegendNANA
02:00 5.4 -4.8 48 0.0       100.07     LegendNANA
03:00 5.1 -6.0 44 0.0       100.04     LegendNANA
04:00 4.4 -8.2 39 0.0       100.04     LegendNANA
05:00 3.5 -7.9 43 0.0       100.04     LegendNANA
06:00 2.8 -7.0 48 0.0       100.09     LegendNANA
07:00 2.9 -6.6 49 0.0       100.15     LegendNANA
08:00 5.2 -8.2 37 0.0       100.17     LegendNANA
09:00 6.3 -8.9 33 0.0       100.20     LegendNANA
10:00 8.2 -8.2 30 0.0       100.20     LegendNANA
11:00 8.0 -6.5 35 0.0       100.19     LegendNANA
12:00 7.4 -7.0 35 0.0       100.15     LegendNANA
13:00 7.3 -6.9 35 0.0       100.12     LegendNANA
14:00 7.3 -4.4 43 0.0       100.07     LegendNANA
15:00 8.1 -4.8 40 0.2       100.02     LegendNANA
16:00 7.6 -7.1 34 0.3       100.01     LegendNANA
17:00 7.9 -7.5 33 0.0       100.00     LegendNANA
18:00 7.4 -7.7 33 0.0       100.01     LegendNANA
19:00 7.2 -7.6 34 0.0       100.05     LegendNANA
20:00 8.1 -5.2 38 0.0       100.10     LegendNANA
21:00 8.3 -8.1 30 0.0       100.08     LegendNANA
22:00 7.9 -9.0 29 0.0       100.07     LegendNANA
23:00 6.7 -8.2 34 0.0       100.08     LegendNANA

Notes on Data Quality.

Legend

  • E = Estimated
  • M = Missing
  • NA = Not Available*
  • [empty] = Indicates an unobserved value
Date modified: